Location: Izdebno
(52.6670°N, 16.2170°E)
Time: 18:58:01
(UTC+02:00)

SR - Pass Details

Date: 06 March 2024
Orbit: 577 x 862 km, 66.7° (Epoch: 20 April)

Event Time Altitude Azimuth Distance (km) Brightness Sun altitude
Rises 19:24:21 0° 318° (NW) 3,277 ? -15.9°
Reaches altitude 10° 19:27:04 10° 328° (NNW) 2,298 ? -16.3°
Maximum altitude 19:31:50 34° 33° (NNE) 1,163 ? -17.1°
Enters shadow 19:33:35 27° 73° (ENE) 1,344 ? -17.3°
